Regional Weather Roundup
Issued by NWS

Home | Current Version | Previous Version | Graphics & Text | Print | Product List | Glossary Off
Versions: 1 2 3 4 5 6 7 8 9 10 11 12 13 14 15 16 17 18 19 20 21 22 23 24 25 26 27 28 29 30 31 32 33 34 35 36 37 38 39 40 41 42 43 44 45 46 47 48 49 50

000
ASUS43 KBIS 100702
RWRND

NORTH DAKOTA REGIONAL WEATHER ROUNDUP
NATIONAL WEATHER SERVICE BISMARCK ND
100 AM CST WED FEB 10 2016

NOTE: "FAIR" INDICATES FEW OR NO CLOUDS BELOW 12,000 FEET WITH NO
SIGNIFICANT WEATHER AND/OR OBSTRUCTIONS TO VISIBILITY.


NDZ001>003-009>011-017-100800-
NORTHWEST NORTH DAKOTA

CITY           SKY/WX    TMP DP  RH WIND       PRES   REMARKS
WILLISTON      PTCLDY    28  23  81 SW3       29.89F
MINOT          LGT SNOW  19  12  74 E13       29.97F VSB 1   WCI   6
MINOT AFB      LGT SNOW  17  15  94 SE15      29.97F FOG     WCI   2
$$

NDZ018>021-031>035-040>046-100800-
SOUTHWEST NORTH DAKOTA

CITY           SKY/WX    TMP DP  RH WIND       PRES   REMARKS
BISMARCK       CLOUDY    28  20  71 E16       29.99F WCI  16
DICKINSON      PTCLDY    32  25  75 W8        29.88F
GARRISON         N/A     24  20  84 SE14      29.95F WCI  12
HETTINGER ARPT PTCLDY    26  20  77 W5        29.93F
$$

NDZ004>008-012>016-024-026-027-054-100800-
NORTHEAST NORTH DAKOTA

CITY           SKY/WX    TMP DP  RH WIND       PRES   REMARKS
GRAND FORKS    CLOUDY     5  -4  66 N7        30.20F WCI  -7
GRND FRKS AFB  CLOUDY     4  -4  71 E6        30.18F WCI  -7
DEVILS LAKE    LGT SNOW   6   2  83 E14       30.09F FOG     WCI -11
$$

NDZ022-023-025-028>030-036>039-047>053-100800-
SOUTHEAST NORTH DAKOTA

CITY           SKY/WX    TMP DP  RH WIND       PRES   REMARKS
FARGO          CLOUDY     4  -2  76 NE5       30.18F WCI  -5
JAMESTOWN      LGT SNOW  11   4  73 SE10      30.08F WCI  -3
$$





USA.gov is the U.S. government's official web portal to all federal, state and local government web resources and services.